Weather Roundup
Issued by NWS Springfield, MO

Home | Current Version | Previous Version | Text Only | Print | Product List | Glossary On
Versions: 1 2 3 4 5 6 7 8 9 10 11 12 13 14 15 16 17 18 19 20 21 22 23 24 25 26 27 28 29 30 31 32 33 34 35 36 37 38 39 40 41 42 43 44 45 46 47 48 49 50
000
NZUS99 KSGF 291259
HRRSGF

HOURLY WEATHER
NATIONAL WEATHER SERVICE SPRINGFIELD MO
800 AM CDT FRI AUG 29 2014

......SGF CWA......

CITY           SKY/WX    TMP DP  RH WIND       PRES   REMARKS
SPRINGFIELD    PTSUNNY   76  63  64 SE14      29.94S
JOPLIN         CLOUDY    73  68  84 SE7       29.91S
WEST PLAINS    MOSUNNY   69  64  84 S3        30.00S
ROLLA          SUNNY     73  64  73 S7        29.97R
OSAGE BEACH    SUNNY     72  63  73 SE6       29.95R
BRANSON        PTSUNNY   73  63  68 SE7       29.97S

......SURROUNDING SGF CWA......

CITY           SKY/WX    TMP DP  RH WIND       PRES   REMARKS
CHANUTE        PTSUNNY   72  64  76 W7        29.90R
PARSONS        LGT RAIN  72  68  87 SW8       29.91R
COFFEYVILLE    CLOUDY    72  69  90 SW8       29.90R
EMPORIA        LGT RAIN  69  65  86 S6        29.90R
SILOAM SPRINGS PTSUNNY   73  63  68 SE8       29.94F
HARRISON AR    MOSUNNY   72  65  78 SE6       29.97S
NEAR YELLVILLE SUNNY     70  61  73 CALM      29.96S

......KANSAS AND MISSOURI......

CITY           SKY/WX    TMP DP  RH WIND       PRES   REMARKS
KANSAS CTY INT PTSUNNY   72  66  81 S5        29.87F
DOWNTOWN KC    MOSUNNY   76  65  68 S5        29.87R
COLUMBIA         N/A     74  65  73 S8        29.94S
SEDALIA        SUNNY     73  64  73 S8        29.92S
ST JOSEPH      MOSUNNY   72  66  81 SE3       29.85S
ST LOUIS       MOSUNNY   77  71  82 S7        29.98R
SPIRIT OF STL  MOSUNNY   74  71  91 CALM      29.96R
KIRKSVILLE     SUNNY     71  68  90 S8        29.93S FOG
WICHITA        CLOUDY    69  65  86 SW3       29.89R
TOPEKA         PTSUNNY   74  67  78 S6        29.87R
OLATHE         MOSUNNY   72  65  78 S3        29.88R

......TENNESSEE......

CITY           SKY/WX    TMP DP  RH WIND       PRES   REMARKS
MEMPHIS        MOSUNNY   79  67  66 SE5       29.98R
NASHVILLE      MOSUNNY   76  70  82 S5        30.04S

......ARKANSAS.......

CITY           SKY/WX    TMP DP  RH WIND       PRES   REMARKS
FAYETTEVILLE   CLOUDY    74  68  81 S9        29.94F
FT SMITH       MOSUNNY   77  69  76 E7        29.91S
LITTLE ROCK    PTSUNNY   74  69  85 SE5       29.96S

......OKLAHOMA.......

CITY           SKY/WX    TMP DP  RH WIND       PRES   REMARKS
TULSA          LGT RAIN  74  66  76 SE3       29.89R
PONCA CITY     CLOUDY    70  68  93 S5        29.90R
MCALESTER      PTSUNNY   72  69  90 SW5       29.93R
OKLAHOMA CITY  CLOUDY    68  65  90 SW5       29.93R

......IOWA............

CITY           SKY/WX    TMP DP  RH WIND       PRES   REMARKS
DES MOINES     MOSUNNY   70  68  93 SE8       29.84F FOG
QUAD CITIES    MOSUNNY   73  68  84 S7        29.92R

......ILLINOIS........

CITY           SKY/WX    TMP DP  RH WIND       PRES   REMARKS
QUINCY         SUNNY     73  70  90 S7        29.94R FOG
CHICAGO        CLOUDY    72  64  76 S9        29.98S




USA.gov is the U.S. government's official web portal to all federal, state and local government web resources and services.